Location: PSU-Greenbush Astrophysical Observatory
(37.5140°N, 94.9880°W)
Time: 05:29:35
(UTC-05:00)

CUTE 1.7 + AOD 2 - Pass Details

Date: 29 February 2020
Orbit: 593 x 612 km, 97.6° (Epoch: 06 April)

Event Time Altitude Azimuth Distance (km) Brightness Sun altitude
Rises 06:22:28 0° 358° (N) 2,840 ? -6.6°
Reaches altitude 10° 06:24:55 10° 345° (NNW) 1,932 ? -6.1°
Maximum altitude 06:28:21 25° 290° (WNW) 1,211 ? -5.5°
Drops below altitude 10° 06:31:46 10° 235° (SW) 1,921 ? -4.8°
Sets 06:34:12 0° 222° (SW) 2,819 ? -4.3°
